Weather History for KVSF - November, 2011

Change the Weather History Date:

Monday, November 14, 2011

  Actual Average Record
Temperature  
Mean Temperature 51 °F 38 °F  
Max Temperature 60 °F 47 °F 60 °F (2011)
Min Temperature 41 °F 29 °F 14 °F (1996)
Degree Days  
Heating Degree Days 14 27  
Month to date heating degree days 288 348  
Since 1 July heating degree days 853 1157  
Cooling Degree Days 0 0  
Month to date cooling degree days 0  
Year to date cooling degree days 345  
Growing Degree Days 2 (Base 50)    
Moisture  
Dew Point 43 °F    
Average Humidity 68    
Maximum Humidity 89    
Minimum Humidity 46    
Precipitation  
Precipitation 0.25 in 0.12 in 0.82 in (2006)
Month to date precipitation 0.35 1.86  
Year to date precipitation 48.72 38.41  
Sea Level Pressure  
Sea Level Pressure 29.77 in    
Wind  
Wind Speed 2 mph (WSW)    
Max Wind Speed 8 mph    
Max Gust Speed 14 mph    
Visibility 8 miles    
Events Rain    
T = Trace of Precipitation, MM = Missing Value Source: NWS Daily Summary

Daily Weather History Graph

Daily Weather History Graph

Search for Another Location

Airport or City:

Trip Planner

Search our weather history database for the weather conditions in past years. The results will help you decide how hot, cold, wet, or windy it might be!

Date:

Astronomy

Nov. 14, 2011 Rise Set
Actual Time 6:41 AM EST 4:26 PM EST
Civil Twilight 6:11 AM EST 4:57 PM EST
Nautical Twilight 5:36 AM EST 5:31 PM EST
Astronomical Twilight 5:02 AM EST 6:05 PM EST
Moon 7:28 PM EST (11/14) 10:00 AM EST (11/14)
Length of Visible Light 10h 46m
Length of Day
9h 45m
Waning Gibbous, 87% of the Moon is Illuminated
Nov 14
Waning Gibbous
Nov 18
Last Quarter
Nov 25
New
Dec 2
First Quarter
Dec 10
Full

Hourly Weather History & Observations

Time (EST) Temp. Windchill Dew Point Humidity Pressure Visibility Wind Dir Wind Speed Gust Speed Precip Events Conditions
12:54 AM 46.0 °F - 39.0 °F 76% 29.87 in 10.0 mi Calm Calm - N/A   Clear
1:54 AM 45.0 °F - 39.9 °F 82% 29.86 in 10.0 mi Calm Calm - N/A   Overcast
2:54 AM 45.0 °F - 39.9 °F 82% 29.85 in 10.0 mi Calm Calm - N/A   Mostly Cloudy
3:54 AM 46.0 °F - 39.9 °F 79% 29.84 in 10.0 mi Calm Calm - N/A   Partly Cloudy
4:54 AM 44.1 °F 42.5 °F 39.0 °F 82% 29.85 in 10.0 mi Variable 3.5 mph - N/A   Clear
5:54 AM 43.0 °F - 39.0 °F 86% 29.85 in 10.0 mi Calm Calm - N/A   Clear
7:54 AM 46.0 °F - 37.9 °F 73% 29.85 in 10.0 mi Calm Calm - N/A   Clear
8:54 AM 51.1 °F - 37.0 °F 59% 29.83 in 10.0 mi Calm Calm - N/A   Clear
9:54 AM 55.9 °F - 37.9 °F 51% 29.82 in 10.0 mi NW 3.5 mph - N/A   Clear
10:54 AM 57.9 °F - 39.0 °F 49% 29.80 in 10.0 mi West 3.5 mph - N/A   Clear
11:54 AM 60.1 °F - 39.9 °F 47% 29.78 in 10.0 mi SSW 5.8 mph - N/A   Clear
2:54 PM 57.0 °F - 39.9 °F 53% 29.76 in 10.0 mi Calm Calm - N/A   Mostly Cloudy
3:54 PM 57.0 °F - 41.0 °F 55% 29.75 in 10.0 mi SSE 3.5 mph - N/A   Clear
4:54 PM 54.0 °F - 42.1 °F 64% 29.76 in 10.0 mi Calm Calm - N/A   Mostly Cloudy
5:54 PM 51.1 °F - 43.0 °F 74% 29.75 in 10.0 mi Calm Calm - N/A   Clear
6:54 PM 50.0 °F - 43.0 °F 77% 29.76 in 10.0 mi Calm Calm - N/A   Mostly Cloudy
7:54 PM 50.0 °F - 45.0 °F 83% 29.73 in 10.0 mi Calm Calm - 0.00 in   Overcast
8:54 PM 50.0 °F - 46.0 °F 86% 29.73 in 10.0 mi Calm Calm - N/A   Overcast
9:51 PM 50.0 °F - 48.2 °F 94% 29.71 in 2.5 mi SSE 3.5 mph - 0.10 in Rain Rain
9:54 PM 48.9 °F - 46.9 °F 93% 29.72 in 3.0 mi Calm Calm - 0.11 in Rain Rain
10:54 PM 51.1 °F - 48.0 °F 89% 29.69 in 4.0 mi NW 3.5 mph - 0.13 in Rain Light Rain
11:38 PM 51.8 °F - 48.2 °F 88% 29.68 in 0.8 mi Calm Calm - 0.01 in   Overcast
11:43 PM 51.8 °F - 50.0 °F 94% 29.67 in 1.5 mi Calm Calm - 0.01 in   Overcast
11:52 PM 51.8 °F - 48.2 °F 88% 29.67 in 2.5 mi Calm Calm - 0.01 in   Overcast
11:54 PM 51.1 °F - 50.0 °F 96% 29.68 in 2.5 mi Calm Calm - 0.01 in   Overcast
11:57 PM 51.8 °F - 50.0 °F 94% 29.67 in 3.0 mi Calm Calm - N/A   Overcast